Location: Holyhead Bay
(53.3667°N, 4.6667°W)
Time: 10:09:27
(UTC+00:00)

Cosmos 2360 Rocket - Pass Details

Date: 16 April 2021
Orbit: 833 x 845 km, 71.0° (Epoch: 08 May)

Event Time Altitude Azimuth Distance (km) Brightness Sun altitude
Rises 21:03:31 0° 320° (NW) 3,415 7.2 -14.0°
Reaches altitude 10° 21:06:36 10° 304° (NW) 2,473 6.0 -14.3°
Maximum altitude 21:10:31 20° 260° (W) 1,873 4.5 -14.8°
Drops below altitude 10° 21:14:27 10° 215° (SW) 2,455 4.5 -15.2°
Sets 21:17:30 0° 199° (SSW) 3,382 5.1 -15.5°
